Regional Weather Roundup
Issued by NWS

Home | Current Version | Previous Version | Graphics & Text | Print | Product List | Glossary On
Versions: 1 2 3 4 5 6 7 8 9 10 11 12 13 14 15 16 17 18 19 20 21 22 23 24 25 26 27 28 29 30 31 32 33 34 35 36 37 38 39 40 41 42 43 44 45 46 47 48 49 50
000
ASUS43 KFSD 161802
RWRSD

WEATHER ROUNDUP FOR SOUTH DAKOTA
NATIONAL WEATHER SERVICE SIOUX FALLS SD
1200 PM CST MON JAN 16 2017

NOTE: "FAIR" INDICATES FEW OR NO CLOUDS BELOW 12,000 FEET WITH NO
SIGNIFICANT WEATHER AND/OR OBSTRUCTIONS TO VISIBILITY.


SDZ001>005-009-010-012>017-161900-
NORTHWEST AND NORTH CENTRAL SOUTH DAKOTA

CITY           SKY/WX    TMP DP  RH WIND       PRES   REMARKS
BUFFALO          N/A     19   9  65 NW8       30.03S WCI   9
FAITH            N/A     17  10  74 NW16      30.08F WCI   2
MOBRIDGE       CLOUDY    13   2  61 NW7       30.07F WCI   3
$$

SDZ012>016-024>037-041>051-057-063-072>074-161900-
SOUTHWEST AND SOUTH CENTRAL SOUTH DAKOTA

CITY           SKY/WX    TMP DP  RH WIND       PRES   REMARKS
RAPID CTY ARPT SUNNY     34  17  50 N9        30.08F WCI  27
PIERRE         CLOUDY    14   8  77 W7        30.09F WCI   4
CUSTER         SUNNY     38   6  26 N5        30.04F
ELLSWORTH AFB  SUNNY     33  13  43 N15       30.07F WCI  23
PHILIP         CLOUDY    23  13  65 W9        30.11S WCI  13
PINE RIDGE     CLOUDY    26  17  68 W5        30.11S WCI  20
SPEARFISH      FAIR      34  16  47 W12       30.10F WCI  25
WINNER         CLOUDY    28  18  66 NW16      30.07S WCI  16
$$

SDZ004>011-016>023-039-040-161900-
NORTHEAST SOUTH DAKOTA

CITY           SKY/WX    TMP DP  RH WIND       PRES   REMARKS
ABERDEEN       CLOUDY    14   7  73 CALM      30.08F
WATERTOWN      CLOUDY    16  13  88 CALM      30.04F FOG
BROOKINGS      CLOUDY    24  18  77 CALM      30.04F
SISSETON         N/A     25  19  78 N6        30.06F WCI  18
$$

SDZ017-020-022-023-036>040-048>070-161900-
SOUTHEAST SOUTH DAKOTA

CITY           SKY/WX    TMP DP  RH WIND       PRES   REMARKS
SIOUX FALLS    CLOUDY    30  23  75 N6        30.04F WCI  24
HURON          CLOUDY    18  11  74 N8        30.08F WCI   8
CHAMBERLAIN    CLOUDY    24  16  72 W8        30.07F WCI  15
MITCHELL       CLOUDY    25  18  74 N3        30.07F
YANKTON        CLOUDY    30  27  86 N7        30.04F WCI  23
$$

ABBREVIATIONS USED IN REMARKS
   TC - TEMPERATURE IN CELSIUS
  WCI - WIND CHILL INDEX
   HX - HEAT INDEX
  VSB - VISIBILITY





USA.gov is the U.S. government's official web portal to all federal, state and local government web resources and services.